This is the latest recevied weather packets stored in our database for station/object KA3ZXO. If no packets are shown the sender has not sent any weather packets the latest 10 day(s).
| Time | Temp. | Humidity | Pressure | Rain* | Wind** | Luminosity | Snow |
|---|---|---|---|---|---|---|---|
| 1777320194 | 21.11° C | 42% | 1023 hPa | 0 mm | - | 483 W/m² | - |
| 1777319593 | 21.11° C | 41% | 1023.1 hPa | 0 mm | - | 503 W/m² | - |
| 1777318993 | 21.67° C | 41% | 1023.3 hPa | 0 mm | - | 529 W/m² | - |
| 1777318391 | 20.56° C | 42% | 1023.3 hPa | 0 mm | - | 554 W/m² | - |
| 1777317791 | 20.56° C | 40% | 1023.5 hPa | 0 mm | - | 526 W/m² | - |
| 1777317185 | 20° C | 41% | 1023.6 hPa | 0 mm | - | 587 W/m² | - |
| 1777316583 | 20.56° C | 44% | 1023.4 hPa | 0 mm | - | 611 W/m² | - |
| 1777315983 | 19.44° C | 43% | 1023.6 hPa | 0 mm | - | 631 W/m² | - |
| 1777315380 | 18.89° C | 43% | 1023.7 hPa | 0 mm | - | 643 W/m² | - |
| 1777314777 | 19.44° C | 44% | 1023.8 hPa | 0 mm | - | 493 W/m² | - |
| 1777314177 | 19.44° C | 43% | 1023.6 hPa | 0 mm | - | 670 W/m² | - |
| 1777313572 | 18.33° C | 45% | 1024 hPa | 0 mm | - | 444 W/m² | - |
| 1777312971 | 18.89° C | 48% | 1024.1 hPa | 0 mm | - | 57 W/m² | - |
| 1777312371 | 18.33° C | 49% | 1024.1 hPa | 0 mm | - | 40 W/m² | - |
| 1777311771 | 17.78° C | 52% | 1024.5 hPa | 0 mm | - | 67 W/m² | - |
| 1777311171 | 17.22° C | 54% | 1024.4 hPa | 0 mm | - | 183 W/m² | - |
| 1777310567 | 17.22° C | 54% | 1024.5 hPa | 0 mm | - | 95 W/m² | - |
| 1777309966 | 17.22° C | 56% | 1024.4 hPa | 0 mm | - | 36 W/m² | - |
| 1777309361 | 16.67° C | 55% | 1024.6 hPa | 0 mm | - | 70 W/m² | - |
| 1777308756 | 16.67° C | 57% | 1024.7 hPa | 0 mm | - | 47 W/m² | - |
| 1777308153 | 16.67° C | 55% | 1024.6 hPa | 0 mm | - | 114 W/m² | - |
| 1777307554 | 16.67° C | 56% | 1024.5 hPa | 0 mm | - | 34 W/m² | - |
| 1777306953 | 16.11° C | 56% | 1024.6 hPa | 0 mm | - | 37 W/m² | - |
| 1777306353 | 16.11° C | 55% | 1024.4 hPa | 0 mm | - | 34 W/m² | - |
| 1777305750 | 15.56° C | 55% | 1024.6 hPa | 0 mm | - | 32 W/m² | - |
* Rain latest hour (hover to see other rain measurements)
** Current wind speed in m/s (hover to see current wind gust speed)